Regional Weather Roundup
Issued by NWS

Home | Current Version | Previous Version | Graphics & Text | Print | Product List | Glossary On
Versions: 1 2 3 4 5 6 7 8 9 10 11 12 13 14 15 16 17 18 19 20 21 22 23 24 25 26 27 28 29 30 31 32 33 34 35 36 37 38 39 40 41 42 43 44 45 46 47 48 49 50
000
ASUS45 KCYS 030310
RWRWY

WYOMING REGIONAL WEATHER ROUNDUP
NATIONAL WEATHER SERVICE CHEYENNE WY
900 PM MDT THU JUL 02 2015

NOTE:  "FAIR" INDICATES FEW OR NO CLOUDS BELOW 12,000 FEET
WITH NO SIGNIFICANT WEATHER AND/OR OBSTRUCTIONS TO VISIBILITY.

WYZ001-030400-
YELLOWSTONE NATIONAL PARK

CITY           SKY/WX    TMP DP  RH WIND       PRES   REMARKS
LK YELLOWSTONE   N/A     68  37  32 VRB3      30.33R
W YELLOWSTONE  NOT AVBL

$$
WYZ002>013-054>058-071-098>099-030400-
NORTHERN WYOMING

CITY           SKY/WX    TMP DP  RH WIND       PRES   REMARKS
JACKSON        FAIR      72  41  33 N5        30.18R
CODY           FAIR      73  50  43 N6        30.16S
GREYBULL       MOCLDY    83  47  28 NW16      30.04R
WORLAND        FAIR      74  57  55 NE6       30.06R
SHERIDAN       FAIR      72  55  55 NW5       30.12R
BUFFALO        FAIR      69  54  58 NW8       30.19R
GILLETTE       FAIR      65  53  65 CALM      30.13S
HULETT         FAIR      70  54  56 CALM      30.14S
NEWCASTLE      FAIR      66  50  55 N5        30.14R

$$
WYZ014>020-022>026-101>103-030400-
CENTRAL WYOMING

CITY           SKY/WX    TMP DP  RH WIND       PRES   REMARKS
BIG PINEY      FAIR      74  35  24 N12       30.22R
PINEDALE       FAIR      70  41  35 W6        30.23R
DUBOIS         FAIR      68  45  42 SE18      30.27R
LANDER         FAIR      73  53  49 W8        30.16R
RIVERTON       FAIR      78  50  37 E9        30.16R
CASPER         FAIR      72  53  51 E12       30.18R
DOUGLAS        FAIR      67  56  67 E8        30.19R

$$
WYZ021-027>030-104>119-030400-
SOUTHERN WYOMING

CITY           SKY/WX    TMP DP  RH WIND       PRES   REMARKS
EVANSTON       FAIR      76  40  27 NW7       30.23R
KEMMERER       FAIR     N/A N/A N/A NW7       30.25R
FORT BRIDGER   CLEAR     79  36  21 N9        30.24R
ROCK SPRINGS   FAIR      70  44  39 E7        30.19R
DIXON          FAIR      70  44  38 NE17      30.22R
RAWLINS        FAIR      62  55  77 NE6       30.25R
SARATOGA       TSTM      61  48  63 S16G25    30.25F
LARAMIE        FAIR      62  52  69 S6        30.31R
CHEYENNE       FAIR      67  54  63 SW3       30.24R
TORRINGTON     MOCLDY    72  56  57 NE8       30.12R
PINE BLUFFS    MOCLDY    68  54  60 CALM      30.19R

$$


USA.gov is the U.S. government's official web portal to all federal, state and local government web resources and services.